Regional Weather Roundup
Issued by NWS

Home | Current Version | Previous Version | Text Only | Print | Product List | Glossary Off
Versions: 1 2 3 4 5 6 7 8 9 10 11 12 13 14 15 16 17 18 19 20 21 22 23 24 25 26 27 28 29 30 31 32 33 34 35 36 37 38 39 40 41 42 43 44 45 46 47 48 49 50

628
ASUS45 KBOI 221010
RWRID

IDAHO REGIONAL WEATHER ROUNDUP
NATIONAL WEATHER SERVICE BOISE ID
300 AM MST SUN JAN 22 2017

NOTE: "FAIR" INDICATES FEW OR NO CLOUDS BELOW 12000 FEET
WITH NO SIGNIFICANT WEATHER AND/OR OBSTRUCTIONS TO VISIBILITY

IDZ012-014-221100-
SOUTHWEST IDAHO


CITY           SKY/WX    TMP DP  RH WIND       PRES   REMARKS
BOISE          PTCLDY    36  28  73 E13       29.82S WCI  27
CALDWELL       PTCLDY    34  28  79 E15       29.81F WCI  24
MOUNTAIN HOME  PTCLDY    31  31 100 E16       29.83F WCI  20
$$

IDZ016-017-221100-
SOUTHCENTRAL IDAHO


CITY           SKY/WX    TMP DP  RH WIND       PRES   REMARKS
BURLEY         CLOUDY    35  23  61 S12       29.87R WCI  27
JEROME         CLOUDY    32  24  72 NE9       29.87R WCI  24
TWIN FALLS     MOCLDY    33  22  63 S14       29.85R WCI  23
$$

IDZ019>023-221100-
SOUTHEAST IDAHO


CITY           SKY/WX    TMP DP  RH WIND       PRES   REMARKS
IDAHO FALLS    CLOUDY    23  22  96 CALM      29.92R
POCATELLO      CLOUDY    33  23  66 S8        29.91R WCI  26
REXBURG        CLOUDY    19  18  95 CALM      29.91R
$$

IDZ006-010-011-018-031-032-221100-
CENTRAL IDAHO MOUNTAINS


CITY           SKY/WX    TMP DP  RH WIND       PRES   REMARKS
MCCALL         FLURRIES  29  25  85 S7        29.75S WCI  22
HAILEY         LGT SNOW  25  21  86 NW7       29.88S WCI  17
STANLEY          N/A     19  16  88 SE7       29.79S WCI  10
SALMON         CLOUDY    12  10  92 CALM      29.88R
CHALLIS        CLOUDY    11  11 100 VRB3      29.85R
$$

IDZ002-004-006-007-026-221100-
NORTHERN IDAHO


CITY           SKY/WX    TMP DP  RH WIND       PRES   REMARKS
LEWISTON       PTCLDY    35  30  82 E5        29.77R WCI  31
LOWELL           N/A     31  29  92 CALM      29.85R
COEUR D`ALENE  LGT SNOW  33  31  92 CALM      29.76R FOG
MULLAN PASS    LGT SNOW  25  22  88 CALM      29.68R FOG
$$




USA.gov is the U.S. government's official web portal to all federal, state and local government web resources and services.